カタログに戻る

IRIDIUM 33 DEB

運用中PO
NORAD 34497·DEBRIS·🇺🇸 United States

打ち上げ Sep 14, 1997 から Baikonur Cosmodrome

Loading…

次のパス (今後24時間)

TLE

最新Source: Space-Track

元期: Sep 14, 2026, 13:23 UTC

1 34497U 97051GN  26257.55787220  .00000886  00000-0  33601-3 0  9995
2 34497  86.2747 294.5147 0079627 167.5610 346.8612 14.28252884908193

AllMySatでIRIDIUM 33 DEBをリアルタイム追跡

Download on the App Store